Flag for Canada Weather past 2 weeks in St. John's, Newfoundland and Labrador, Canada

Now
50 °F

Drizzle. Fog.


Feels Like: 44 °F
Forecast: 44 / 55 °F
Wind: 17 mph from South

Location: St. John's

Current Time: Sep 30, 2014 at 10:32:46 PM

Latest Report: Sep 30, 2014 at 9:30 PM


Visibility: 4 mi

Pressure: 30.11 "Hg

Humidity: 94%

Dew point: 48 °F

Location of St. John'sLocation

Historic Weather in St. John's — Graph

°F

St. John's temperature yesterday

Maximum temperature yesterday: 57 °F (at 1:30 AM)
Minimum temperature yesterday: 37 °F (at 11:30 PM)
Average temperature yesterday: 45 °F

Past Weeks' High & Low Weather Summary

 TemperatureHumidityPressure
High70 °F (Sep 21, 2:30 PM)100% (Sep 15, 9:30 PM)30.44 "Hg (Sep 15, 9:30 PM)
Low36 °F (Sep 30, 1:30 AM)49% (Sep 25, 2:30 PM)29.65 "Hg (Sep 27, 2:30 PM)
Average53 °F82%30.01 "Hg
* Reported Sep 15 9:30 PM — Sep 30 9:30 PM, St. John's, Weather by CustomWeather, © 2014

Note: Actual official high and low records may vary slightly from our data, if they occured in-between our weather recording intervals... More about our weather records

Advertising

St. John's weather history for previous 24 hours

 ConditionsComfort  
Time TempWeatherWind HumidityBarometerVisibility
9:30 PM
Sep 30
50 °FDrizzle. Fog.17 mph94%30.11 "Hg4 mi
8:30 PM48 °FDrizzle. Fog.10 mph100%30.13 "Hg6 mi
7:30 PM48 °FDrizzle. Fog.10 mph94%30.14 "Hg6 mi
7:18 PM48 °FDrizzle. Overcast.12 mph94%30.14 "Hg8 mi
6:30 PM48 °FOvercast.12 mph87%30.16 "Hg15 mi
5:30 PM48 °FMostly cloudy.13 mph82%30.18 "Hg15 mi
4:30 PM46 °FMore clouds than sun.12 mph87%30.21 "Hg15 mi
3:30 PM48 °FMostly cloudy.12 mph76%30.23 "Hg15 mi
2:30 PM46 °FMore clouds than sun.13 mph76%30.24 "Hg15 mi
12:30 PM46 °FMostly cloudy.15 mph66%30.30 "Hg15 mi
11:30 AM45 °FMostly cloudy.9 mph71%30.33 "Hg15 mi
10:30 AM45 °FMostly cloudy.9 mph71%30.34 "Hg15 mi
9:30 AM43 °FMostly cloudy.7 mph76%30.35 "Hg15 mi
8:30 AM41 °FMostly cloudy.6 mph76%30.34 "Hg15 mi
7:30 AM39 °FMostly cloudy.6 mph81%30.33 "Hg15 mi
6:30 AM37 °FPassing clouds.3 mph87%30.33 "Hg15 mi
5:30 AM37 °FOvercast.No wind81%30.33 "Hg15 mi
4:30 AM36 °FPassing clouds.2 mph87%30.33 "Hg15 mi
3:30 AM37 °FOvercast.2 mph75%30.32 "Hg15 mi
2:30 AM36 °FPassing clouds.No wind81%30.32 "Hg15 mi
1:30 AM36 °FPassing clouds.3 mph81%30.31 "Hg15 mi
12:30 AM37 °FOvercast.5 mph81%30.29 "Hg15 mi
11:30 PM
Sep 29
37 °FOvercast.6 mph81%30.30 "Hg15 mi
10:30 PM39 °FMostly cloudy.5 mph81%30.27 "Hg15 mi
Weather by CustomWeather, © 2014

See weather overviewHow to use our weather pages